This is the latest recevied weather packets stored in our database for station/object KB1JLI. If no packets are shown the sender has not sent any weather packets the latest 10 day(s).
| Time | Temp. | Humidity | Pressure | Rain* | Wind** | Luminosity | Snow |
|---|---|---|---|---|---|---|---|
| 1777843452 | 11.67° C | 39% | 1006.4 hPa | 0 mm | - | 96 W/m² | - |
| 1777843150 | 11.67° C | 40% | 1006.2 hPa | 0 mm | - | 72 W/m² | - |
| 1777842846 | 11.67° C | 39% | 1006.2 hPa | 0 mm | - | 69 W/m² | - |
| 1777842541 | 11.67° C | 39% | 1006.1 hPa | 0 mm | - | 81 W/m² | - |
| 1777842238 | 11.67° C | 39% | 1005.9 hPa | 0 mm | - | 90 W/m² | - |
| 1777841933 | 11.67° C | 39% | 1005.9 hPa | 0 mm | - | 114 W/m² | - |
| 1777841630 | 11.67° C | 38% | 1005.7 hPa | 0 mm | - | 126 W/m² | - |
| 1777841327 | 11.67° C | 39% | 1005.9 hPa | 0 mm | - | 143 W/m² | - |
| 1777841024 | 11.67° C | 38% | 1005.7 hPa | 0 mm | - | 113 W/m² | - |
| 1777840721 | 11.67° C | 39% | 1005.7 hPa | 0 mm | - | 142 W/m² | - |
| 1777840419 | 11.67° C | 41% | 1005.7 hPa | 0 mm | - | 152 W/m² | - |
| 1777840116 | 11.67° C | 40% | 1005.7 hPa | 0 mm | - | 101 W/m² | - |
| 1777839814 | 11.67° C | 41% | 1005.8 hPa | 0 mm | - | 82 W/m² | - |
| 1777839512 | 11.67° C | 40% | 1005.7 hPa | 0 mm | - | 145 W/m² | - |
| 1777839208 | 12.22° C | 40% | 1005.5 hPa | 0 mm | - | 190 W/m² | - |
| 1777838906 | 12.22° C | 41% | 1005.4 hPa | 0 mm | - | 180 W/m² | - |
| 1777838601 | 11.67° C | 42% | 1005.5 hPa | 0 mm | - | 213 W/m² | - |
| 1777838299 | 11.67° C | 41% | 1005.5 hPa | 0 mm | - | 218 W/m² | - |
| 1777837995 | 11.67° C | 43% | 1005.6 hPa | 0 mm | - | 169 W/m² | - |
| 1777837693 | 11.67° C | 43% | 1005.5 hPa | 0 mm | - | 147 W/m² | - |
| 1777837389 | 11.67° C | 43% | 1005.6 hPa | 0 mm | - | 175 W/m² | - |
| 1777837085 | 11.67° C | 44% | 1005.8 hPa | 0 mm | - | 248 W/m² | - |
| 1777836781 | 11.67° C | 43% | 1005.6 hPa | 0 mm | - | 168 W/m² | - |
| 1777836477 | 11.67° C | 43% | 1005.8 hPa | 0 mm | - | 167 W/m² | - |
| 1777836172 | 11.67° C | 43% | 1005.7 hPa | 0 mm | - | 196 W/m² | - |
* Rain latest hour (hover to see other rain measurements)
** Current wind speed in m/s (hover to see current wind gust speed)